OpenBCM V1.13 (Linux)

Packet Radio Mailbox

DB0FHN

[JN59NK Nuernberg]

 Login: GUEST





  
I6KZR  > KEPLER   05.03.03 21:33l 317 Lines 15752 Bytes #999 (0) @ WW
BID : 27375_IK6WID
Read: DB0FHN GUEST
Subj: 2L Keplerian Elements #064
Path: DB0FHN<DB0RGB<OK0PPL<RZ6HXA<SP7MGD<IK6PYS<IK6PYS<I6ZLO<IK6WID
Sent: 030305/1919Z @:IK6WID.#AP.IMAR.ITA.EU #:27375 [MONTE URANO]  FBB7.00i
From: I6KZR@IK6WID.#AP.IMAR.ITA.EU
To  : KEPLER@WW


OSCAR 7
1 07530U 74089B   03063.65784427 -.00000029 +00000-0 +10000-3 0 01671
2 07530 101.7590 111.3114 0012264 051.0273 309.1886 12.53564695294955
GOES 2
1 10061U 77048A   03062.76944659 -.00000220  00000-0  00000+0 0  1069
2 10061  14.1377  13.3235 0012624 200.8418 159.1157  0.99396945 38967
GOES 3
1 10953U 78062A   03062.89700804 -.00000106  00000-0  00000+0 0  9412
2 10953  13.4165  17.1298 0005841 343.7170  16.2812  1.00279545 43630
GOES 6
1 14050U 83041A   03063.00530959 +.00000023 +00000-0 +10000-3 0 04285
2 14050 010.4192 035.4742 0004593 345.1505 014.8975 01.00306906130775
OSCAR 10
1 14129U 83058B   03053.29347507 -.00000135 +00000-0 +10000-3 0 09207
2 14129 025.9661 163.6642 6025305 329.8586 006.1874 02.05867335120141
OSCAR 11 (UoSAT 2)
1 14781U 84021B   03064.23430844  .00001238  00000-0  17872-3 0   877
2 14781  98.1193  38.2721 0009332 156.7549 203.4088 14.78032714 18406
NOAA 10
1 16969U 86073A   03063.99174800  .00000131  00000-0  71938-4 0  6854
2 16969  98.7311  58.0733 0013402  47.4631 312.7679 14.27069193855963
GOES 7
1 17561U 87022A   03063.39816912  .00000035  00000-0  10000-3 0  8755
2 17561   7.6275  55.4626 0005432 264.7758 165.1898  1.00256649 41882
COSMOS 1861
1 18129U 87054A   03064.23451884  .00000047  00000-0  34238-4 0  2104
2 18129  82.9266 135.7188 0011081 178.7967 181.3214 13.72702167786529
EUTELSAT 1-F4 (ECS 4)
1 18351U 87078B   03059.07635020  .00000013  00000-0  00000+0 0   442
2 18351   7.2160  58.6101 0006917 200.9393 159.1775  0.98687115 42776
NOAA 11
1 19531U 88089A   03064.01216883  .00000121  00000-0  86318-4 0  5220
2 19531  98.8996 145.3454 0011903 157.8313 202.3377 14.14543520744848
ASTRA 1A
1 19688U 88109B   03062.90298781  .00000023  00000-0  10000-3 0  5842
2 19688   1.4267  94.6968 0004002 238.8547 157.9372  1.00271478 32334
OSCAR 14 (UOSAT 3)
1 20437U 90005B   03063.76034515  .00000086  00000-0  48154-4 0  1782
2 20437  98.2687 106.6937 0010910 154.8713 205.3003 14.31241765684522
OSCAR 15 (UOSAT 4)
1 20438U 90005C   03063.65032991  .00000056  00000-0  37374-4 0  7805
2 20438  98.2459  95.6489 0009791 166.1468 193.9986 14.30201052684174
OSCAR 16 (PACSAT)
1 20439U 90005D   03063.63312087 +.00000133 +00000-0 +65723-4 0 08627
2 20439 098.3150 118.3392 0011101 162.3595 197.7979 14.31476758684540
OSCAR 17 (DOVE)
1 20440U 90005E   03063.68918721  .00000116  00000-0  59074-4 0  7319
2 20440  98.3362 122.3194 0010970 160.8364 199.3233 14.31754912684623
OSCAR 18 (WEBERSAT)
1 20441U 90005F   03064.52173984  .00000117  00000-0  59578-4 0   265
2 20441  98.3311 122.3193 0011841 159.6224 200.5435 14.31558412684723
OSCAR 19 (LUSAT)
1 20442U 90005G   03064.21891145  .00000098  00000-0  52355-4 0  9777
2 20442  98.3444 125.0790 0011826 159.8105 200.3547 14.31721505684735
JAS 1B (FUJI 2)
1 20480U 90013C   03063.88980486 -.00000036 +00000-0 -27596-5 0 04822
2 20480 099.0477 023.9400 0540350 331.4694 025.7783 12.83330445612359
HST
1 20580U 90037B   03064.22488426  .00003054  00000-0  24006-3 0  3477
2 20580  28.4686 302.8598 0003943  71.8719  66.1950 14.97881867504834
EUTELSAT 2-F1
1 20777U 90079B   03058.86735716 -.00000116  00000-0  10000-3 0   407
2 20777   3.5291  84.4541 0003426 323.2557 137.7336  1.00272316 26193
FENGYUN 1B
1 20788U 90081A   03064.51910941  .00000309  00000-0  23087-3 0  8967
2 20788  99.0278  46.5547 0016124 185.9599 174.1378 14.02143263639637
EUTELSAT 2-F2
1 21056U 91003B   03058.89572918  .00000102  00000-0  10000-3 0  6211
2 21056   2.7523  87.8292 0003750 291.4980 148.8290  1.00271203 31977
INFORMATOR 1
1 21087U 91006A   03064.18584462  .00000063  00000-0  49791-4 0  6030
2 21087  82.9431 306.5840 0033910 207.9136 152.0200 13.74927971606896
COSMOS 2123
1 21089U 91007A   03063.80942193 +.00000059 +00000-0 +46830-4 0 05170
2 21089 082.9243 170.8167 0027589 246.7328 113.0920 13.74405665605742
ASTRA 1B
1 21139U 91015A   03057.00000000  .00000104  00000-0  10000-3 0  1628
2 21139   0.0122 319.8851 0002995  65.1991 149.4912  1.00273184 32263
METEOSAT 5 (MOP 2)
1 21140U 91015B   03060.09077436  .00000002  00000-0  10000-3 0  7410
2 21140   5.6529  69.8729 0000430 309.0749 235.1341  1.00276557 46155
NOAA 12
1 21263U 91032A   03064.01733576  .00000239  00000-0  12055-3 0  9916
2 21263  98.6279  53.4024 0012925 344.3668  15.7111 14.25089594613270
OSCAR 22 (UoSAT 5)
1 21575U 91050B   03063.96912626 +.00000231 +00000-0 +87742-4 0 07433
2 21575 098.1421 055.3658 0008537 088.6226 271.5941 14.39163075610357
METEOR 3-5
1 21655U 91056A   03063.95682546 +.00000051 +00000-0 +10000-3 0 06398
2 21655 082.5535 028.6914 0013219 157.7554 202.4143 13.16980508555371
UARS
1 21701U 91063B   03064.39614981  .00000944  00000-0  88656-4 0  8391
2 21701  56.9827 332.0369 0004090 108.3090 251.8401 15.02888255627943
EUTELSAT 2-F3
1 21803U 91083A   03060.91610534  .00000112  00000-0  10000-3 0  5256
2 21803   2.6229  89.0106 0005211 269.6113 152.0968  1.00272029 37114
INMARSAT 2-F3
1 21814U 91084B   03061.52426777  .00000096  00000-0  10000-3 0  6264
2 21814   1.7690  58.5928 0002576 287.6675 220.3502  1.00274647 41010
INMARSAT 2-F4
1 21940U 92021B   03062.44518345 -.00000365  00000-0  10000-3 0  5765
2 21940   2.3916  20.0078 0002025 329.0460  81.0054  1.00267465 39819
EUTELSAT 2-F4
1 22028U 92041B   03057.90296856 -.00000117  00000-0  10000-3 0  3336
2 22028   1.7379  92.3742 0006202 237.6864 139.0226  1.00271809 31865
OSCAR 23 (KITSAT 1)
1 22077U 92052B   03063.95020032 -.00000037 +00000-0 +10000-3 0 02548
2 22077 066.0862 095.6107 0015713 270.3661 089.5557 12.86408913496154
ASTRA 1C
1 22653U 93031A   03057.00000000  .00000104  00000-0  10000-3 0  7895
2 22653   0.0122 319.8851 0002995  65.1991 149.5045  1.00273184 30968
METEOR 2-21
1 22782U 93055A   03063.85380726  .00000020  00000-0  45605-5 0  5335
2 22782  82.5488 203.5640 0021141 307.5889  52.3357 13.83532674480062
KITSAT B
1 22825U 93061C   03063.96700377 +.00000094 +00000-0 +53574-4 0 05200
2 22825 098.2742 092.9301 0007676 212.2477 147.8237 14.28947197491938
POSAT 1
1 22826U 93061D   03063.64497892 +.00000099 +00000-0 +55012-4 0 03292
2 22826 098.2740 093.7454 0008072 214.8352 145.2303 14.29170500491939
ITAMSAT
1 22828U 93061F   03064.53187227  .00000108  00000-0  58411-4 0  4402
2 22828  98.2706  94.8522 0009390 188.7531 171.3504 14.29512365460267
EYESAT A
1 22829U 93061G   03063.69855218  .00000152  00000-0  75077-4 0  4654
2 22829  98.2715  94.6734 0009204 191.9584 168.1381 14.29774333492075
METEOSAT 6
1 22912U 93073B   03063.87321760  .00000054  00000-0  00000+0 0  7068
2 22912   2.7134  82.4913 0001174 175.5852 227.7546  1.00269618 32447
GOES 8
1 23051U 94022A   03061.25548983 -.00000268  00000-0  00000+0 0  6300
2 23051   0.3261 102.5292 0001000 283.9129 150.5436  1.00273615 39923
ASTRA 1D
1 23331U 94070A   03061.83053825  .00000123  00000-0  10000-3 0  8221
2 23331   0.0965 256.2527 0003630  97.0702 129.9835  1.00273165 30993
RADIO ROSTO
1 23439U 94085A   03063.92778991 -.00000039 +00000-0 +94870-4 0 06904
2 23439 064.8178 018.2597 0146593 112.3268 249.3257 11.27547735337210
NOAA 14
1 23455U 94089A   03063.98724070 +.00000138 +00000-0 +98402-4 0 05881
2 23455 099.1862 082.9337 0009312 184.5597 175.5492 14.13302128421513
HIMAWARI 5 (GMS 5)
1 23522U 95011B   03062.13054951 -.00000294  00000-0  00000+0 0  1301
2 23522   1.7964  83.3256 0000198 176.3958  88.0258  1.00272875 29012
HOT BIRD 1
1 23537U 95016B   03055.93642088  .00000074  00000-0  10000-3 0  5388
2 23537   0.0930 158.4148 0007489 128.2319 217.9136  1.00274434 29037
GOES 9
1 23581U 95025A   03063.34366300  .00000083  00000-0  00000+0 0  5432
2 23581   0.2386 277.8210 0012284 245.2620 315.1856  1.00063868 28501
INMARSAT 3-F1
1 23839U 96020A   03059.73801147 -.00000004 +00000-0 +00000-0 0 08792
2 23839 000.0719 325.4688 0013901 236.0688 286.2920 01.00269917025312
ASTRA 1F
1 23842U 96021A   03057.00000000  .00000104  00000-0  10000-3 0  5616
2 23842   0.0122 319.8851 0002995  65.1991 149.5643  1.00273184 25192
JAS 2
1 24278U 96046B   03063.88955092 +.00000032 +00000-0 +68053-4 0 05724
2 24278 098.5389 213.1663 0350509 179.2452 180.9298 13.52873733323244
UNAMSAT
1 24305U 96052B   03064.56816106  .00000205  00000-0  20364-3 0  6679
2 24305  82.9271 251.6811 0029534 158.2168 202.0233 13.73454135325540
INMARSAT 3-F2
1 24307U 96053A   03063.96016427 -.00000131  00000-0  00000+0 0   891
2 24307   0.0526 346.7323 0005002   8.2459 137.4701  1.00273004 23762
HOT BIRD 2
1 24665U 96067A   03054.87288413  .00000076  00000-0  10000-3 0  3445
2 24665   0.0674 252.7220 0007661  70.4027 157.3662  1.00270188 23318
INMARSAT 3-F3
1 24674U 96070A   03063.55281889 +.00000030 +00000-0 +10000-3 0 00014
2 24674 000.0505 311.8868 0003314 000.1828 226.9105 01.00274452022723
GOES 10
1 24786U 97019A   03063.29350267  .00000079  00000-0  00000+0 0  5710
2 24786   0.1717 104.8167 0002325 273.8773 113.1868  1.00264284 21470
INMARSAT 3-F4
1 24819U 97027A   03063.97924061 -.00000294  00000-0  10000-3 0  8921
2 24819   0.0649 308.6587 0004546  51.7150 100.4675  1.00271187 21159
FENGYUN 2A
1 24834U 97029A   03060.84354332 -.00000213  00000-0  00000+0 0  9726
2 24834   2.6000  88.3287 0001093 244.3172 216.2693  1.00279478 20956
HOT BIRD 3
1 24931U 97049A   03054.87288413  .00000075  00000-0  10000-3 0  4284
2 24931   0.1004 298.5607 0010424  36.2408 145.6862  1.00270404 20133
METEOSAT 7
1 24932U 97049B   03058.89532175 -.00000019  00000-0  00000+0 0  2550
2 24932   0.2424  73.4343 0001886 223.2414 183.5527  1.00269814 20115
ASTRA 1G
1 25071U 97076A   03057.00000000  .00000104  00000-0  10000-3 0  3936
2 25071   0.0122 319.8851 0002995  65.1991 149.5199  1.00273184 19210
